Weather History for Fairfield, CA

Change the Weather History Date:

Saturday, June 29, 2013

  Actual Average Record
Temperature  
Mean Temperature 86 °F -  
Max Temperature 106 °F 84 °F 106 °F (2013)
Min Temperature 67 °F 55 °F 53 °F (1997)
Cooling Degree Days 21    
Growing Degree Days 36 (Base 50)    
Moisture  
Dew Point 57 °F    
Average Humidity 41    
Maximum Humidity 72    
Minimum Humidity 19    
Precipitation  
Precipitation 0.00 in - - ()
Sea Level Pressure  
Sea Level Pressure 29.83 in    
Wind  
Wind Speed 9 mph (WSW)    
Max Wind Speed 18 mph    
Max Gust Speed 23 mph    
Visibility 10 miles    
Events      
Averages and records for this station are not official NWS values.
T = Trace of Precipitation, MM = Missing Value Source: NWS Daily Summary

Daily Weather History Graph

Daily Weather History Graph

Search for Another Location

Airport:

Trip Planner

Search our weather history database for the weather conditions in past years. The results will help you decide how hot, cold, wet, or windy it might be!

Date:

Astronomy

Jun. 29, 2013 Rise Set
Actual Time 5:47 AM PDT 8:35 PM PDT
Civil Twilight 5:15 AM PDT 9:06 PM PDT
Nautical Twilight 4:36 AM PDT 9:46 PM PDT
Astronomical Twilight 3:51 AM PDT 10:31 PM PDT
Moon 12:13 AM PDT 12:58 PM PDT
Length of Visible Light 15h 50m
Length of Day
14h 47m
Waning Gibbous, 54% of the Moon is Illuminated
Jun 29
Waning Gibbous
Jun 29
Last Quarter
Jul 8
New
Jul 15
First Quarter
Jul 22
Full

Hourly Weather History & Observations

Time (PDT) Temp. Heat Index Dew Point Humidity Pressure Visibility Wind Dir Wind Speed Gust Speed Precip Events Conditions
12:58 AM 74.8 °F - 56.7 °F 53% 29.86 in 10.0 mi SW 9.2 mph - N/A   Clear
1:58 AM 71.4 °F - 57.2 °F 61% 29.86 in 10.0 mi SW 9.2 mph - N/A   Clear
2:58 AM 70.0 °F - 57.7 °F 65% 29.86 in 10.0 mi WSW 10.4 mph - N/A   Clear
3:58 AM 69.4 °F - 56.5 °F 63% 29.86 in 10.0 mi SSW 9.2 mph - N/A   Clear
4:58 AM 68.4 °F - 57.0 °F 67% 29.86 in 10.0 mi WSW 9.2 mph - N/A   Clear
5:58 AM 67.5 °F - 58.3 °F 72% 29.87 in 10.0 mi WSW 6.9 mph - N/A   Clear
6:58 AM 70.9 °F - 58.6 °F 65% 29.88 in 10.0 mi West 6.9 mph - N/A   Clear
7:58 AM 78.3 °F - 57.4 °F 49% 29.89 in 10.0 mi Variable 3.5 mph - N/A   Clear
8:58 AM 83.5 °F 84.1 °F 62.1 °F 48% 29.88 in 10.0 mi Calm Calm - N/A   Clear
9:58 AM 88.7 °F 88.6 °F 60.4 °F 39% 29.88 in 10.0 mi ENE 5.8 mph - N/A   Clear
10:58 AM 93.0 °F 92.7 °F 59.7 °F 33% 29.87 in 10.0 mi North 8.1 mph - N/A   Clear
11:58 AM 97.9 °F 96.2 °F 55.6 °F 24% 29.86 in 10.0 mi NNE 10.4 mph - N/A   Clear
12:58 PM 100.0 °F 98.3 °F 54.7 °F 22% 29.86 in 10.0 mi ENE 4.6 mph - N/A   Clear
1:58 PM 101.3 °F 99.6 °F 54.9 °F 21% 29.84 in 10.0 mi Variable 3.5 mph - N/A   Clear
2:58 PM 103.5 °F 102.7 °F 55.8 °F 21% 29.82 in 10.0 mi Variable 3.5 mph - N/A   Clear
3:58 PM 105.6 °F 104.6 °F 56.1 °F 19% 29.80 in 10.0 mi West 9.2 mph - N/A   Clear
4:58 PM 104.5 °F 104.2 °F 57.4 °F 21% 29.78 in 10.0 mi West 16.1 mph - N/A   Clear
5:58 PM 102.2 °F 101.4 °F 56.5 °F 22% 29.76 in 10.0 mi WSW 18.4 mph 23.0 mph N/A   Clear
6:58 PM 98.6 °F 97.6 °F 56.7 °F 25% 29.75 in 10.0 mi WSW 18.4 mph - N/A   Clear
7:58 PM 93.0 °F 91.1 °F 55.0 °F 28% 29.75 in 10.0 mi WSW 13.8 mph - N/A   Clear
8:58 PM 84.6 °F 83.2 °F 54.5 °F 36% 29.76 in 10.0 mi SSW 9.2 mph - N/A   Clear
9:58 PM 81.0 °F 80.6 °F 54.7 °F 40% 29.78 in 10.0 mi SW 12.7 mph - N/A   Clear
10:58 PM 77.4 °F - 55.6 °F 47% 29.78 in 10.0 mi SW 12.7 mph - N/A   Clear
11:58 PM 75.2 °F - 56.3 °F 52% 29.78 in 10.0 mi WSW 15.0 mph - N/A   Clear